Weather WX

World > North America > United States > Minnesota

Victoria, Minnesota Regional Weather

Lat: 44.87N, Lon: 93.66W
Wx Zone: MNZ068
Feedback

Victoria, MN Regional Weather

Expires:201906192200;;749699
ASUS43 KMPX 192110
RWRMN 
WEATHER ROUNDUP FOR MINNESOTA
NATIONAL WEATHER SERVICE TWIN CITIES/CHANHASSEN MN
400 PM CDT WED JUN 19 2019


NOTE: "FAIR" INDICATES FEW OR NO CLOUDS BELOW 12,000 FEET WITH NO
SIGNIFICANT WEATHER AND/OR OBSTRUCTIONS TO VISIBILITY. N/A MEANS
CURRENT SKY AND/OR WEATHER CONDITIONS ARE NOT AVAILABLE.


MNZ060>063-068>070-192200-
   Twin Cities Metro   
  
CITY           SKY/WX    TMP DP  RH WIND       PRES   REMARKS
TWIN CITIES    PTSUNNY   78  50  37 E9G25     29.76F                  
ST PAUL        FAIR      75  53  46 E9G18     29.77F                  
CRYSTAL        FAIR      78  51  38 VRB6      29.76F                  
BLAINE         PTSUNNY   77  54  44 NE7       29.77F                  
EDEN PRAIRIE   FAIR      75  53  46 E6        29.75F                  
SOUTH ST PAUL  FAIR      76  49  37 NE3       29.76F                  
LAKE ELMO        N/A     77  55  47 CALM      29.78F                  
$$

SKY/WX - Weather  TMP - Temperature  DP - Dew Point  RH - Relative Humidity
WIND - Wind Direction/Speed PRES - Barometric Pressure VSB - Visibility
WCI - Wind Chill Index E13G22 Wind - East Wind 13 mph/Gusts of 22 mph